Radiation Dose at Monitoring Post of Fukushima Daini Nuclear Power Station
Date,Time,MP-1(microSv/h),MP-2(microSv/h),MP-3(microSv/h),MP-4(microSv/h),MP-5(microSv/h),MP-6(microSv/h),MP-7(microSv/h),Wind Direction,Wind Velocity(m/s),Rain
2024/01/02,00:00,0.146,0.133,0.209,0.199,0.206,0.119,0.076,northwest,1.8,No
2024/01/02,00:10,0.146,0.133,0.208,0.198,0.207,0.119,0.077,northwest,1.7,No
2024/01/02,00:20,0.147,0.133,0.208,0.197,0.205,0.119,0.077,west-northwest,1.6,No
2024/01/02,00:30,0.147,0.134,0.208,0.199,0.206,0.119,0.076,west,1.5,No
2024/01/02,00:40,0.146,0.133,0.210,0.199,0.206,0.118,0.077,west,1.4,No
2024/01/02,00:50,0.145,0.133,0.209,0.198,0.206,0.119,0.077,west,1.4,No
2024/01/02,01:00,0.147,0.133,0.208,0.198,0.205,0.120,0.076,west-southwest,1.0,No
2024/01/02,01:10,0.147,0.133,0.208,0.197,0.206,0.118,0.076,west-southwest,1.0,No
2024/01/02,01:20,0.146,0.132,0.210,0.199,0.206,0.119,0.076,west-southwest,0.8,No
2024/01/02,01:30,0.147,0.133,0.208,0.198,0.206,0.119,0.077,west-southwest,1.4,No
2024/01/02,01:40,0.147,0.133,0.209,0.198,0.205,0.118,0.076,west-southwest,2.0,No
2024/01/02,01:50,0.147,0.133,0.208,0.198,0.206,0.119,0.076,west-southwest,1.7,No
2024/01/02,02:00,0.147,0.133,0.209,0.198,0.206,0.118,0.077,southwest,1.7,No
2024/01/02,02:10,0.147,0.134,0.209,0.199,0.206,0.119,0.077,southwest,1.8,No
2024/01/02,02:20,0.147,0.133,0.209,0.199,0.205,0.120,0.077,southwest,2.1,No
2024/01/02,02:30,0.147,0.133,0.208,0.198,0.206,0.118,0.077,southwest,2.2,No
2024/01/02,02:40,0.146,0.134,0.208,0.199,0.205,0.119,0.077,southwest,2.2,No
2024/01/02,02:50,0.147,0.133,0.209,0.198,0.205,0.119,0.076,southwest,2.3,No
2024/01/02,03:00,0.147,0.132,0.208,0.198,0.206,0.119,0.077,southwest,1.9,No
2024/01/02,03:10,0.147,0.133,0.208,0.198,0.206,0.119,0.077,southwest,2.3,No
2024/01/02,03:20,0.147,0.133,0.209,0.198,0.206,0.118,0.076,southwest,2.1,No
2024/01/02,03:30,0.147,0.132,0.208,0.198,0.206,0.119,0.077,southwest,2.1,No
2024/01/02,03:40,0.146,0.133,0.209,0.198,0.206,0.119,0.076,southwest,2.4,No
2024/01/02,03:50,0.146,0.133,0.208,0.198,0.206,0.119,0.077,southwest,2.6,No
2024/01/02,04:00,0.147,0.133,0.209,0.198,0.206,0.119,0.076,southwest,3.3,No
2024/01/02,04:10,0.146,0.134,0.210,0.198,0.206,0.118,0.077,southwest,3.9,No
2024/01/02,04:20,0.146,0.133,0.208,0.199,0.207,0.118,0.077,southwest,3.3,No
2024/01/02,04:30,0.147,0.133,0.208,0.198,0.205,0.119,0.078,southwest,3.4,No
2024/01/02,04:40,0.147,0.133,0.209,0.199,0.206,0.119,0.076,southwest,3.8,No
2024/01/02,04:50,0.146,0.133,0.208,0.198,0.205,0.118,0.076,south-southwest,3.6,No
2024/01/02,05:00,0.147,0.134,0.209,0.198,0.207,0.119,0.076,south-southwest,3.2,No
2024/01/02,05:10,0.147,0.133,0.208,0.199,0.205,0.120,0.077,south-southwest,3.3,No
2024/01/02,05:20,0.147,0.133,0.208,0.197,0.205,0.119,0.076,south-southwest,3.0,No
2024/01/02,05:30,0.147,0.132,0.208,0.199,0.205,0.119,0.077,south,3.1,No
2024/01/02,05:40,0.147,0.133,0.209,0.198,0.204,0.119,0.077,south-southwest,1.9,No
2024/01/02,05:50,0.147,0.133,0.208,0.199,0.206,0.120,0.076,southwest,2.1,No
2024/01/02,06:00,0.147,0.134,0.209,0.199,0.204,0.118,0.077,south-southwest,2.1,No
2024/01/02,06:10,0.146,0.133,0.208,0.198,0.206,0.119,0.077,south-southwest,1.9,No
2024/01/02,06:20,0.148,0.133,0.208,0.198,0.205,0.119,0.076,south-southwest,2.4,No
2024/01/02,06:30,0.146,0.134,0.208,0.198,0.207,0.119,0.077,south-southwest,2.5,No
2024/01/02,06:40,0.146,0.133,0.209,0.198,0.205,0.119,0.076,south-southwest,2.1,No
2024/01/02,06:50,0.147,0.134,0.208,0.198,0.205,0.119,0.076,southwest,1.8,No
2024/01/02,07:00,0.147,0.133,0.208,0.198,0.205,0.119,0.077,west-southwest,0.9,No
2024/01/02,07:10,0.147,0.133,0.208,0.199,0.205,0.119,0.077,southwest,1.9,No
2024/01/02,07:20,0.147,0.132,0.209,0.198,0.206,0.119,0.077,southwest,2.0,No
2024/01/02,07:30,0.146,0.133,0.207,0.199,0.205,0.119,0.077,southwest,2.1,No
2024/01/02,07:40,0.147,0.134,0.208,0.198,0.206,0.119,0.076,southwest,2.0,No
2024/01/02,07:50,0.147,0.134,0.209,0.199,0.206,0.118,0.076,southwest,1.7,No
2024/01/02,08:00,0.147,0.133,0.209,0.198,0.206,0.119,0.076,southwest,1.2,No
2024/01/02,08:10,0.147,0.133,0.208,0.199,0.205,0.119,0.076,south-southwest,0.6,No
2024/01/02,08:20,0.147,0.133,0.208,0.197,0.206,0.119,0.076,-,CALM,No
2024/01/02,08:30,0.146,0.134,0.209,0.197,0.207,0.118,0.076,south-southeast,0.7,No
2024/01/02,08:40,0.146,0.133,0.208,0.197,0.206,0.120,0.076,-,CALM,No
2024/01/02,08:50,0.148,0.133,0.209,0.198,0.205,0.119,0.076,-,CALM,No
2024/01/02,09:00,0.147,0.133,0.209,0.198,0.205,0.120,0.076,-,CALM,No
2024/01/02,09:10,0.147,0.133,0.208,0.198,0.205,0.119,0.077,-,CALM,No
2024/01/02,09:20,0.147,0.133,0.208,0.198,0.205,0.119,0.077,-,CALM,No
2024/01/02,09:30,0.147,0.134,0.208,0.199,0.206,0.119,0.077,-,CALM,No
2024/01/02,09:40,0.147,0.134,0.208,0.197,0.206,0.119,0.077,-,CALM,No
2024/01/02,09:50,0.147,0.133,0.209,0.198,0.205,0.119,0.076,northwest,0.8,No
2024/01/02,10:00,0.148,0.132,0.208,0.199,0.206,0.119,0.077,northwest,0.7,No
2024/01/02,10:10,0.147,0.133,0.209,0.198,0.207,0.118,0.076,-,CALM,No
2024/01/02,10:20,0.147,0.133,0.208,0.199,0.205,0.119,0.076,-,CALM,No
2024/01/02,10:30,0.147,0.134,0.208,0.199,0.207,0.119,0.077,-,CALM,No
2024/01/02,10:40,0.147,0.134,0.208,0.197,0.206,0.120,0.076,-,CALM,No
2024/01/02,10:50,0.146,0.133,0.209,0.198,0.208,0.119,0.077,-,CALM,No
2024/01/02,11:00,0.148,0.133,0.208,0.198,0.206,0.119,0.076,southeast,0.6,No
2024/01/02,11:10,0.146,0.133,0.208,0.197,0.206,0.119,0.077,east-southeast,1.0,No
2024/01/02,11:20,0.146,0.133,0.208,0.199,0.206,0.118,0.076,east-southeast,1.2,No
2024/01/02,11:30,0.147,0.132,0.208,0.198,0.205,0.119,0.077,east-southeast,1.4,No
2024/01/02,11:40,0.145,0.133,0.208,0.198,0.207,0.119,0.076,southeast,1.3,No
2024/01/02,11:50,0.146,0.132,0.209,0.199,0.205,0.120,0.076,east-southeast,1.0,No
2024/01/02,12:00,0.147,0.134,0.208,0.198,0.208,0.119,0.075,east-southeast,1.0,No
2024/01/02,12:10,0.146,0.133,0.208,0.199,0.207,0.119,0.077,east-southeast,1.9,No
2024/01/02,12:20,0.147,0.133,0.209,0.198,0.207,0.118,0.077,east-southeast,1.8,No
2024/01/02,12:30,0.146,0.134,0.208,0.198,0.206,0.119,0.076,east-southeast,1.2,No
2024/01/02,12:40,0.148,0.134,0.208,0.199,0.206,0.119,0.076,east-southeast,1.9,No
2024/01/02,12:50,0.147,0.133,0.207,0.198,0.207,0.119,0.077,east-southeast,1.7,No
2024/01/02,13:00,0.148,0.133,0.208,0.198,0.206,0.119,0.076,east-southeast,0.8,No
2024/01/02,13:10,0.146,0.133,0.209,0.198,0.206,0.119,0.076,east-southeast,1.5,No
2024/01/02,13:20,0.146,0.134,0.208,0.197,0.206,0.120,0.077,east-southeast,0.9,No
2024/01/02,13:30,0.147,0.133,0.209,0.198,0.207,0.119,0.076,southeast,0.6,No
2024/01/02,13:40,0.146,0.133,0.209,0.198,0.207,0.118,0.076,east-southeast,0.9,No
2024/01/02,13:50,0.146,0.133,0.208,0.198,0.207,0.119,0.076,-,CALM,No
2024/01/02,14:00,0.147,0.133,0.208,0.198,0.206,0.119,0.076,northwest,0.5,No
2024/01/02,14:10,0.146,0.133,0.209,0.198,0.205,0.118,0.077,northwest,1.0,No
2024/01/02,14:20,0.147,0.133,0.209,0.199,0.207,0.118,0.076,northwest,1.0,Yes
2024/01/02,14:30,0.147,0.133,0.210,0.198,0.206,0.119,0.076,north-northwest,1.2,Yes
2024/01/02,14:40,0.147,0.133,0.209,0.199,0.209,0.119,0.077,west-northwest,1.7,Yes
2024/01/02,14:50,0.148,0.134,0.208,0.199,0.208,0.121,0.077,west,2.4,Yes
2024/01/02,15:00,0.148,0.135,0.209,0.199,0.208,0.122,0.079,northeast,1.7,Yes
2024/01/02,15:10,0.149,0.136,0.210,0.201,0.208,0.121,0.079,northwest,2.2,Yes
2024/01/02,15:20,0.149,0.134,0.209,0.199,0.208,0.122,0.079,north-northwest,1.3,Yes
2024/01/02,15:30,0.150,0.136,0.210,0.199,0.208,0.122,0.080,northwest,0.9,Yes
2024/01/02,15:40,0.150,0.136,0.211,0.202,0.207,0.122,0.079,north,0.7,Yes
2024/01/02,15:50,0.150,0.135,0.210,0.199,0.208,0.121,0.079,northwest,1.6,Yes
2024/01/02,16:00,0.148,0.134,0.210,0.199,0.208,0.121,0.079,north-northwest,1.9,Yes
2024/01/02,16:10,0.149,0.134,0.210,0.200,0.207,0.122,0.078,north-northwest,1.8,Yes
2024/01/02,16:20,0.149,0.135,0.209,0.199,0.208,0.120,0.079,north-northwest,1.7,Yes
2024/01/02,16:30,0.148,0.135,0.209,0.198,0.207,0.121,0.078,north-northwest,2.0,Yes
2024/01/02,16:40,0.149,0.134,0.209,0.198,0.207,0.122,0.078,north-northwest,2.1,Yes
2024/01/02,16:50,0.148,0.134,0.210,0.200,0.207,0.120,0.077,north-northwest,2.1,Yes
2024/01/02,17:00,0.148,0.135,0.209,0.200,0.207,0.122,0.078,northwest,1.7,Yes
2024/01/02,17:10,0.148,0.135,0.208,0.199,0.207,0.121,0.078,northwest,2.9,Yes
2024/01/02,17:20,0.148,0.134,0.209,0.199,0.207,0.120,0.078,north-northwest,3.4,Yes
2024/01/02,17:30,0.149,0.134,0.208,0.199,0.207,0.120,0.078,north-northwest,5.1,Yes
2024/01/02,17:40,0.149,0.134,0.208,0.198,0.207,0.120,0.077,north-northwest,5.6,No
2024/01/02,17:50,0.148,0.135,0.208,0.200,0.207,0.120,0.078,north-northwest,4.1,Yes
2024/01/02,18:00,0.149,0.135,0.209,0.198,0.208,0.121,0.079,northwest,4.5,Yes
2024/01/02,18:10,0.149,0.135,0.210,0.201,0.209,0.122,0.079,west-northwest,5.7,Yes
2024/01/02,18:20,0.149,0.136,0.210,0.201,0.209,0.123,0.079,west-northwest,3.8,Yes
2024/01/02,18:30,0.149,0.135,0.209,0.200,0.208,0.121,0.079,west-northwest,4.4,Yes
2024/01/02,18:40,0.150,0.136,0.211,0.199,0.208,0.121,0.078,west-northwest,4.1,No
2024/01/02,18:50,0.149,0.135,0.209,0.199,0.207,0.121,0.078,west-northwest,2.1,No
2024/01/02,19:00,0.148,0.134,0.210,0.200,0.207,0.120,0.078,west-northwest,1.6,No
2024/01/02,19:10,0.148,0.134,0.209,0.199,0.206,0.120,0.077,north,1.1,No
2024/01/02,19:20,0.149,0.134,0.208,0.197,0.206,0.119,0.077,north-northwest,2.6,No
2024/01/02,19:30,0.148,0.133,0.209,0.198,0.207,0.119,0.077,northwest,4.1,No
2024/01/02,19:40,0.148,0.133,0.208,0.197,0.206,0.120,0.076,north-northwest,3.6,No
2024/01/02,19:50,0.147,0.134,0.208,0.197,0.205,0.119,0.076,north-northwest,3.7,No
2024/01/02,20:00,0.147,0.133,0.209,0.198,0.207,0.120,0.077,north-northwest,4.1,No
2024/01/02,20:10,0.148,0.133,0.207,0.198,0.205,0.120,0.077,northwest,5.4,No
2024/01/02,20:20,0.146,0.133,0.209,0.197,0.205,0.119,0.077,northwest,3.4,No
2024/01/02,20:30,0.147,0.132,0.208,0.197,0.206,0.120,0.076,west-northwest,3.5,No
2024/01/02,20:40,0.147,0.134,0.208,0.198,0.206,0.118,0.077,west-northwest,6.0,No
2024/01/02,20:50,0.147,0.133,0.208,0.198,0.206,0.119,0.077,west-northwest,5.8,No
2024/01/02,21:00,0.146,0.133,0.207,0.197,0.206,0.119,0.077,west-northwest,5.6,No
2024/01/02,21:10,0.147,0.133,0.208,0.198,0.206,0.119,0.076,west-northwest,6.2,No
2024/01/02,21:20,0.147,0.132,0.208,0.198,0.206,0.118,0.076,west-northwest,4.0,No
2024/01/02,21:30,0.146,0.133,0.208,0.198,0.206,0.118,0.077,west-northwest,1.9,No
2024/01/02,21:40,0.146,0.133,0.207,0.197,0.206,0.119,0.076,west-northwest,1.7,No
2024/01/02,21:50,0.147,0.133,0.207,0.198,0.206,0.118,0.076,west-northwest,0.9,No
2024/01/02,22:00,0.147,0.133,0.208,0.197,0.205,0.119,0.076,-,CALM,No
2024/01/02,22:10,0.148,0.134,0.209,0.197,0.205,0.119,0.076,-,CALM,No
2024/01/02,22:20,0.147,0.134,0.208,0.198,0.206,0.118,0.076,east-southeast,1.2,No
2024/01/02,22:30,0.147,0.132,0.209,0.197,0.206,0.119,0.076,east-southeast,0.9,No
2024/01/02,22:40,0.146,0.133,0.208,0.198,0.206,0.119,0.076,-,CALM,No
2024/01/02,22:50,0.147,0.133,0.208,0.198,0.206,0.118,0.076,east,0.9,No
2024/01/02,23:00,0.147,0.134,0.209,0.198,0.206,0.118,0.076,southwest,0.6,No
2024/01/02,23:10,0.147,0.133,0.208,0.198,0.205,0.119,0.076,west,1.0,No
2024/01/02,23:20,0.147,0.133,0.207,0.198,0.205,0.119,0.076,northwest,1.1,No
2024/01/02,23:30,0.147,0.133,0.208,0.198,0.205,0.118,0.076,west-northwest,0.7,No
2024/01/02,23:40,0.147,0.132,0.207,0.197,0.205,0.119,0.077,east,0.9,No
2024/01/02,23:50,0.146,0.132,0.207,0.197,0.205,0.118,0.076,-,CALM,No
